Location: Unspecified
(0.0000°N, 0.0000°E)
Time: 11:44:44
(UTC+00:00)

Explorer 11/Cluster Stage 4 - Pass Details

Date: 10 October 2020
Orbit: 467 x 1258 km, 28.8° (Epoch: 28 October)

Event Time Altitude Azimuth Distance (km) Brightness Sun altitude
Rises 04:19:21 0° 289° (WNW) 3,421 - -21.7°
Reaches altitude 10° 04:21:46 10° 284° (WNW) 2,602 - -21.1°
Exits shadow 04:25:20 34° 264° (W) 1,583 7.6 -20.3°
Maximum altitude 04:28:01 52° 209° (SSW) 1,291 7.5 -19.6°
Drops below altitude 10° 04:35:31 10° 134° (SE) 3,109 10.4 -17.7°
Sets 04:38:40 0° 129° (SE) 4,139 11.3 -17.0°
